Location: Arleux
(50.3632°N, 2.8721°E)
Time: 18:56:43
(UTC+00:00)

Cosmos 1536 - Pass Details

Date: 15 December 2019
Orbit: 540 x 559 km, 82.5° (Epoch: 26 January)

Event Time Altitude Azimuth Distance (km) Brightness Sun altitude
Rises 06:27:58 0° 208° (SSW) 2,736 6.3 -11.0°
Reaches altitude 10° 06:30:14 10° 216° (SW) 1,845 5.4 -10.7°
Maximum altitude 06:34:03 39° 286° (WNW) 849 3.3 -10.1°
Drops below altitude 10° 06:37:54 10° 357° (N) 1,852 5.2 -9.6°
Sets 06:40:12 0° 5° (N) 2,749 6.2 -9.2°
